Location: Nairn
(57.5833°N, 3.8667°W)
Time: 02:06:02
(UTC+00:00)

Tiros 1 despin weight - Pass Details

Date: 30 November 2020
Orbit: 594 x 641 km, 48.2° (Epoch: 22 January)

Event Time Altitude Azimuth Distance (km) Brightness Sun altitude
Rises 16:29:05 0° 264° (W) 2,946 ? -6.4°
Reaches altitude 10° 16:32:03 10° 245° (WSW) 2,033 ? -6.8°
Maximum altitude 16:35:09 18° 204° (SSW) 1,581 ? -7.1°
Drops below altitude 10° 16:38:14 10° 162° (SSE) 2,020 ? -7.5°
Sets 16:41:11 0° 143° (SE) 2,919 ? -7.9°
